Location: Koussan�
(15.2012°N, 12.5548°W)
Time: 18:40:00
(UTC+00:00)

Cosmos 292 Rocket - Pass Details

Date: 20 October 2020
Orbit: 673 x 695 km, 74.0° (Epoch: 30 November)

Event Time Altitude Azimuth Distance (km) Brightness Sun altitude
Rises 18:40:43 0° 177° (S) 3,008 7.2 -4.2°
Reaches altitude 10° 18:43:08 10° 169° (S) 2,097 6.3 -4.7°
Maximum altitude 18:47:29 38° 101° (E) 1,025 4.3 -5.8°
Drops below altitude 10° 18:51:52 10° 33° (NNE) 2,109 5.9 -6.8°
Sets 18:54:18 0° 26° (NNE) 3,028 6.8 -7.4°
